Location: Crescent
(42.8242°N, 73.7329°W)
Time: 18:31:49
(UTC+00:00)

Vanguard 1 - Pass Details

Date: 18 February 2026
Orbit: 653 x 3818 km, 34.2° (Epoch: 5 March)

Event Time Altitude Azimuth Distance (km) Brightness Sun altitude
Rises 02:22:26 0° 281° (W) 6,838 15.1 -42.4°
Reaches altitude 10° 02:27:00 10° 274° (W) 6,161 14.6 -43.1°
Maximum altitude 02:45:07 38° 216° (SW) 4,909 13.4 -46.0°
Enters shadow 02:50:47 35° 192° (SSW) 5,111 13.3 -46.8°
Drops below altitude 10° 03:04:33 10° 157° (SSE) 6,516 - -48.8°
Sets 03:09:42 0° 150° (SSE) 7,243 - -49.5°
